Wind_Speed
22 23 24 25 25 25 25 26 26 27 27 27 27 27 27 28 28 28 27 27 26 25 25 25 24 25 25 25 25 25 25 26 25 25 26 28 28 29 28 29 29 29 28
22 23 24 25 26 26 25 25 26 27 27 28 28 29 28 28 28 28 27 26 26 25 25 25 26 26 25 25 25 25 26 27 27 26 27 28 29 29 29 29 30 30 29
22 23 24 25 26 26 26 27 28 28 29 29 30 30 29 29 29 28 27 26 26 26 27 27 27 27 26 27 27 27 28 29 29 29 29 30 30 30 31 30 30 30 30
23 24 24 25 26 26 27 28 28 29 29 30 30 31 30 30 30 29 28 27 27 28 28 28 28 28 28 29 29 29 30 31 31 31 31 32 32 32 32 31 31 31 31
25 25 25 26 27 27 27 28 29 29 29 30 31 31 32 31 30 29 29 28 28 29 29 30 30 30 30 30 30 31 31 32 33 33 33 33 33 33 32 32 32 32 31
26 26 27 27 28 28 28 28 29 30 30 31 31 32 32 32 31 29 30 30 30 31 31 31 31 31 31 32 32 32 32 33 33 33 33 34 34 34 33 33 33 33 32
28 28 28 28 28 29 28 29 29 30 31 31 32 32 33 33 32 31 31 31 31 31 31 31 32 32 32 32 32 32 32 33 33 34 34 34 34 34 34 34 34 34 33
29 29 29 29 29 29 29 30 31 31 31 31 32 33 33 33 33 32 32 32 32 32 32 32 33 33 33 33 33 32 32 33 34 34 35 35 34 35 35 35 35 34 34
29 29 30 29 29 29 30 30 31 31 32 31 32 32 32 33 33 33 33 33 32 31 32 33 33 33 34 34 35 35 34 34 34 35 35 35 35 35 36 36 35 35 35
28 29 29 29 30 30 31 31 31 32 33 33 33 32 32 32 33 34 33 33 32 31 31 33 34 34 35 35 36 36 35 35 35 35 35 34 34 34 34 34 34 34 33
27 28 29 29 30 31 31 31 32 33 34 34 33 33 33 33 33 34 34 33 32 32 32 33 33 33 34 35 35 35 35 35 34 34 34 34 34 34 34 35 35 35 35
28 29 29 29 30 31 32 32 33 34 34 33 33 33 34 34 33 33 33 33 33 33 33 33 33 33 33 33 34 34 34 34 34 34 34 34 34 35 35 36 36 36 37
29 30 30 30 31 31 31 32 33 34 33 33 33 33 34 34 33 33 33 33 34 34 34 33 33 33 33 32 32 32 32 32 32 32 33 34 35 35 35 35 36 36 36
31 31 31 31 32 32 32 32 33 33 33 33 33 33 33 33 33 33 33 34 34 34 34 34 34 33 33 33 32 31 31 31 31 32 33 33 34 34 35 35 35 35 35
31 32 32 32 32 32 33 32 33 34 33 33 33 33 33 33 33 34 33 33 34 34 34 34 33 32 32 32 32 32 32 32 32 32 33 33 34 34 33 33 34 34 35
32 32 33 32 32 32 33 33 34 34 34 33 33 33 33 33 33 33 34 33 33 33 33 32 32 32 31 31 32 32 32 32 33 34 34 34 34 34 33 32 32 33 33
33 34 33 33 33 33 33 33 33 33 33 33 33 33 34 33 33 33 33 33 32 32 31 31 31 31 31 31 32 33 33 33 33 32 33 33 33 32 32 32 32 32 33
34 34 33 33 34 34 34 33 33 33 32 33 34 34 34 33 32 32 32 32 31 31 31 30 30 30 31 31 32 32 32 32 32 32 31 31 30 30 30 31 31 32 32
34 34 34 34 34 34 34 33 33 33 33 33 33 33 33 33 33 33 32 32 31 31 31 31 30 30 30 30 30 30 30 30 30 30 30 30 29 28 28 29 29 29 30
35 34 34 34 33 33 34 33 33 33 33 34 34 33 33 33 33 33 32 32 32 31 31 30 30 30 29 29 29 29 28 28 28 28 28 28 27 26 26 26 27 27 26
34 34 34 33 33 33 33 33 33 33 33 33 33 33 32 32 32 32 31 31 30 30 29 28 28 28 27 26 27 27 27 27 26 25 25 25 25 25 25 25 25 24 24
34 33 33 32 31 31 32 32 32 31 31 31 32 31 30 30 29 29 28 28 28 28 28 28 27 27 26 26 26 26 26 25 25 24 23 23 24 24 24 24 24 23 23
33 32 32 31 30 30 29 29 30 29 29 29 29 29 28 28 27 27 26 26 26 26 27 27 26 26 26 26 26 25 25 24 24 24 24 23 23 22 23 23 23 23 23
32 32 31 30 30 29 28 28 28 29 29 28 28 27 27 27 26 26 26 26 25 25 25 25 25 25 26 25 25 24 24 23 22 22 23 23 22 23 23 23 23 23 23
32 31 30 30 29 28 28 28 28 28 28 27 27 27 26 26 26 25 25 25 25 24 24 24 24 23 23 23 23 23 22 22 21 20 20 21 22 22 22 22 22 23 22
31 30 30 29 28 28 27 27 27 27 27 27 26 26 25 25 24 24 24 24 24 24 24 24 23 22 22 22 21 22 21 20 20 20 19 20 20 20 21 22 22 22 22
Wind_Direction
270 271 272 272 272 273 276 277 278 280 283 285 287 289 290 291 291 290 290 290 288 287 288 287 286 287 285 279 277 277 274 270 266 263 263 264 264 265 265 265 264 264 263
273 274 274 275 274 274 275 277 279 280 283 286 287 289 290 290 290 290 289 288 287 286 286 287 287 287 283 280 280 278 276 273 268 264 265 267 267 266 265 267 265 265 263
275 276 276 276 275 275 275 277 279 281 282 285 287 289 289 289 289 289 287 286 286 286 286 286 286 284 283 282 280 279 277 274 270 267 267 268 270 268 266 267 266 266 265
279 279 279 279 278 277 275 277 279 281 282 283 286 287 288 288 287 287 286 285 286 285 285 285 284 283 283 283 281 279 276 274 271 269 268 268 270 270 268 267 266 266 265
280 281 282 282 281 280 278 277 279 281 282 283 286 287 287 287 286 286 286 285 286 284 283 284 284 284 283 281 280 279 277 274 273 272 270 268 269 270 267 266 266 265 265
280 281 283 283 283 282 279 278 279 280 281 283 285 285 285 286 285 284 284 284 285 285 284 283 283 283 282 280 279 278 276 274 273 272 272 270 268 267 266 265 265 265 265
280 282 283 282 283 283 281 280 280 281 282 283 284 284 284 287 287 285 285 283 285 285 284 282 282 282 281 279 278 278 276 274 272 272 272 272 269 266 265 265 264 265 264
281 282 285 284 282 283 284 283 282 282 283 283 284 284 284 286 286 285 284 286 286 285 283 282 281 281 280 278 276 277 277 275 273 273 273 272 270 268 266 266 265 264 264
282 282 283 284 283 284 285 285 284 284 284 284 285 284 285 285 285 285 285 285 286 285 284 283 282 281 280 278 277 276 276 275 275 274 273 272 270 268 267 267 265 265 265
284 284 284 285 284 284 286 286 286 285 286 286 285 284 284 285 285 285 286 285 285 286 285 284 283 282 280 278 277 277 275 275 274 273 272 271 269 268 267 267 267 266 266
284 285 286 287 287 286 286 287 287 286 286 285 284 284 283 284 285 285 286 286 286 286 285 284 284 283 281 280 278 278 276 275 274 272 270 269 268 267 266 266 267 266 266
284 286 287 288 288 288 287 287 288 288 287 285 284 284 284 283 284 285 285 287 287 286 285 284 283 283 282 282 280 278 277 275 274 272 270 269 268 268 267 267 266 266 264
284 286 287 288 289 289 288 288 289 289 287 284 283 283 284 283 284 286 286 287 287 287 285 284 283 282 281 281 279 278 277 275 273 272 270 269 268 268 268 267 265 265 266
283 285 286 287 288 288 289 289 289 289 287 284 284 283 284 284 284 285 286 286 286 286 285 283 283 282 281 279 278 277 277 276 274 272 271 269 269 269 269 267 266 266 265
282 285 287 287 287 287 288 290 290 289 287 285 284 284 285 285 284 284 285 286 286 286 286 285 283 281 281 280 279 279 278 278 276 273 272 271 271 271 271 269 266 265 264
283 285 286 287 287 288 289 289 290 290 287 286 285 285 285 285 285 284 285 287 287 286 285 284 283 281 281 280 280 280 279 278 276 274 272 271 271 271 270 269 266 264 264
284 285 285 285 287 288 289 289 290 290 288 288 289 288 287 286 286 286 287 286 285 286 285 283 282 281 282 281 280 279 278 277 276 274 273 271 271 269 268 267 265 263 262
285 285 285 285 286 287 288 288 289 289 289 289 290 289 288 286 286 286 286 285 285 284 283 282 282 282 283 282 281 280 278 277 275 273 271 270 269 267 266 265 264 262 260
284 285 285 284 285 286 287 287 288 289 289 290 291 290 289 287 286 286 285 284 283 282 281 281 281 282 282 281 282 281 279 277 275 275 272 269 267 266 266 265 263 261 260
284 285 285 285 284 285 286 286 287 288 289 289 290 291 289 288 287 285 284 282 282 282 281 281 281 281 281 281 281 280 279 277 276 274 271 267 264 263 263 262 261 260 259
283 283 283 285 285 285 286 286 287 289 289 289 289 289 288 288 287 285 283 282 282 283 281 280 281 281 281 281 282 282 280 276 274 272 268 266 264 262 260 259 258 257 257
281 282 283 284 284 284 285 286 287 289 291 291 289 288 288 288 288 287 284 282 282 281 280 278 278 279 278 279 280 280 278 274 271 269 267 264 262 261 259 258 257 256 256
281 282 283 283 283 283 284 285 288 290 292 292 290 289 289 289 289 288 286 284 282 281 280 278 278 278 278 277 278 279 276 274 270 267 264 262 260 260 260 258 257 255 254
281 281 282 282 283 283 284 285 288 290 291 291 291 291 291 290 289 290 290 289 286 283 281 280 280 280 278 277 278 277 275 273 269 265 261 260 258 258 259 258 255 253 253
279 280 281 282 283 284 285 286 288 290 292 292 293 292 290 289 289 289 290 290 288 286 284 282 281 281 281 281 279 276 273 271 267 264 261 260 259 258 259 258 256 254 253
277 279 281 281 281 282 283 285 288 290 291 292 292 292 291 290 288 288 288 288 287 287 285 283 283 282 283 283 280 277 273 269 266 265 264 263 262 261 260 258 257 256 255
Height
5799 5799 5799 5798 5798 5798 5797 5796 5795 5795 5793 5792 5790 5788 5786 5784 5781 5779 5776 5774 5771 5769 5767 5765 5763 5762 5760 5759 5758 5758 5758 5758 5759 5761 5761 5761 5762 5762 5763 5763 5764 5765 5766
5793 5792 5792 5791 5791 5790 5790 5789 5788 5787 5786 5784 5783 5781 5778 5776 5774 5771 5769 5767 5764 5762 5760 5758 5757 5755 5753 5752 5752 5751 5751 5751 5752 5753 5753 5753 5753 5754 5755 5755 5755 5756 5757
5787 5786 5785 5784 5783 5782 5782 5781 5781 5779 5778 5776 5775 5773 5770 5768 5766 5763 5761 5759 5757 5755 5753 5752 5750 5748 5747 5745 5744 5744 5743 5743 5743 5744 5745 5745 5745 5745 5746 5746 5747 5747 5748
5780 5779 5778 5777 5776 5775 5774 5773 5772 5771 5770 5768 5766 5764 5762 5760 5758 5756 5753 5751 5750 5747 5746 5744 5742 5741 5739 5737 5736 5736 5735 5735 5735 5735 5735 5736 5736 5736 5736 5737 5737 5738 5739
5773 5772 5771 5769 5768 5767 5766 5765 5764 5762 5761 5759 5758 5756 5753 5751 5749 5747 5745 5743 5741 5739 5737 5736 5734 5732 5730 5729 5728 5727 5726 5726 5726 5725 5726 5726 5726 5726 5726 5726 5727 5728 5729
5766 5765 5763 5762 5760 5759 5757 5756 5755 5753 5752 5750 5748 5746 5744 5742 5741 5738 5737 5734 5732 5730 5728 5726 5725 5723 5721 5720 5719 5718 5717 5716 5716 5716 5716 5716 5716 5716 5716 5716 5717 5718 5719
5758 5757 5755 5754 5752 5750 5748 5747 5745 5744 5742 5741 5739 5737 5735 5733 5731 5729 5727 5725 5723 5721 5718 5717 5715 5714 5712 5711 5709 5708 5707 5706 5706 5706 5705 5705 5705 5705 5705 5706 5706 5707 5708
5750 5749 5747 5746 5744 5742 5740 5738 5736 5734 5733 5731 5729 5727 5726 5724 5722 5720 5718 5715 5713 5711 5709 5707 5705 5704 5702 5701 5699 5698 5697 5696 5695 5695 5695 5694 5694 5694 5694 5694 5695 5696 5698
5742 5741 5739 5737 5735 5733 5731 5729 5727 5725 5723 5721 5719 5718 5716 5715 5712 5710 5708 5706 5703 5701 5699 5697 5695 5693 5692 5690 5689 5688 5687 5685 5684 5684 5683 5683 5683 5683 5683 5684 5684 5685 5686
5734 5732 5730 5729 5727 5725 5723 5720 5718 5716 5714 5711 5710 5708 5706 5705 5702 5700 5698 5696 5693 5691 5689 5686 5684 5683 5681 5679 5677 5676 5675 5674 5673 5673 5672 5672 5672 5672 5673 5673 5674 5675 5676
5725 5724 5722 5720 5718 5716 5714 5711 5709 5707 5705 5702 5700 5698 5696 5695 5692 5690 5688 5685 5683 5680 5678 5676 5674 5672 5670 5668 5666 5665 5664 5663 5662 5661 5661 5661 5661 5662 5662 5663 5664 5664 5665
5717 5715 5713 5711 5709 5707 5705 5702 5700 5697 5695 5692 5690 5688 5686 5684 5682 5680 5678 5675 5673 5670 5668 5665 5663 5661 5659 5657 5655 5654 5653 5652 5651 5651 5650 5650 5651 5651 5652 5652 5653 5653 5654
5708 5706 5704 5702 5700 5698 5696 5693 5690 5688 5685 5682 5680 5679 5676 5674 5672 5670 5667 5665 5662 5660 5657 5655 5653 5651 5648 5647 5645 5643 5642 5641 5640 5640 5640 5640 5640 5640 5640 5641 5641 5642 5643
5699 5697 5695 5693 5691 5689 5686 5684 5681 5678 5675 5673 5671 5668 5666 5664 5662 5660 5657 5655 5652 5649 5647 5644 5642 5640 5638 5637 5635 5634 5632 5631 5630 5630 5629 5629 5629 5629 5629 5630 5630 5631 5632
5690 5688 5686 5684 5682 5679 5677 5674 5671 5668 5665 5663 5661 5658 5656 5654 5652 5649 5646 5644 5642 5639 5636 5634 5632 5630 5629 5627 5625 5624 5623 5622 5620 5620 5619 5619 5619 5619 5619 5619 5619 5620 5621
5680 5678 5677 5675 5672 5670 5667 5665 5661 5659 5656 5653 5651 5649 5646 5644 5641 5639 5636 5634 5631 5629 5626 5624 5622 5620 5619 5617 5616 5614 5613 5611 5610 5609 5609 5608 5608 5608 5608 5608 5608 5609 5610
5670 5668 5667 5665 5662 5660 5657 5655 5652 5649 5646 5644 5641 5638 5636 5634 5631 5629 5626 5623 5621 5619 5616 5614 5612 5611 5609 5607 5605 5604 5603 5601 5600 5599 5598 5598 5597 5597 5597 5597 5598 5598 5599
5660 5658 5656 5654 5652 5650 5648 5645 5643 5640 5637 5634 5631 5628 5626 5623 5621 5618 5616 5613 5611 5609 5606 5605 5603 5601 5599 5597 5595 5594 5592 5591 5590 5589 5588 5587 5587 5587 5587 5587 5588 5588 5589
5649 5648 5646 5644 5642 5640 5637 5635 5633 5630 5627 5624 5621 5619 5616 5613 5611 5608 5605 5603 5601 5599 5597 5595 5593 5591 5589 5587 5585 5584 5582 5581 5580 5579 5578 5578 5578 5578 5578 5578 5578 5578 5579
5639 5637 5635 5633 5631 5629 5627 5625 5623 5620 5617 5614 5612 5609 5606 5603 5600 5598 5595 5592 5590 5588 5586 5585 5583 5581 5579 5578 5576 5574 5573 5572 5571 5570 5569 5568 5568 5569 5569 5569 5569 5570 5571
5629 5627 5625 5623 5621 5619 5617 5615 5613 5610 5607 5604 5602 5599 5596 5593 5590 5587 5585 5582 5580 5578 5576 5574 5573 5572 5570 5568 5567 5565 5564 5563 5562 5561 5560 5560 5560 5561 5561 5561 5562 5562 5563
5618 5616 5614 5612 5610 5609 5607 5605 5603 5600 5597 5594 5591 5589 5586 5583 5580 5577 5575 5573 5571 5569 5567 5565 5564 5562 5561 5560 5558 5557 5555 5554 5554 5553 5553 5553 5553 5553 5553 5554 5555 5555 5556
5607 5606 5604 5602 5600 5598 5597 5595 5593 5590 5587 5584 5582 5579 5576 5574 5571 5568 5566 5564 5562 5560 5558 5556 5555 5553 5552 5551 5549 5548 5547 5546 5545 5545 5545 5545 5546 5546 5547 5547 5548 5548 5549
5596 5595 5594 5592 5590 5589 5587 5585 5583 5581 5578 5576 5573 5570 5568 5565 5562 5560 5557 5555 5553 5551 5549 5548 5546 5545 5543 5542 5541 5540 5539 5538 5537 5537 5537 5538 5538 5539 5539 5540 5540 5541 5542
5586 5584 5583 5582 5581 5579 5578 5576 5574 5571 5569 5566 5564 5561 5559 5556 5554 5552 5549 5547 5545 5543 5541 5540 5538 5537 5535 5534 5533 5532 5531 5530 5530 5530 5530 5531 5531 5531 5532 5532 5533 5534 5535
5575 5574 5573 5572 5571 5570 5568 5566 5564 5562 5560 5557 5555 5553 5550 5548 5546 5544 5542 5540 5538 5536 5534 5532 5531 5529 5528 5527 5526 5524 5524 5523 5523 5523 5523 5524 5524 5524 5525 5525 5526 5527 5528